Stations météo

réclame
Mon MeteoGroup
Quimper, France (7201): Température de l'air & dewpoint: 10.06.2019 17:00:00 - 16.06.2019 17:00:00 (CEST)Quimper, France (7201): Température de l'air 5cm: 10.06.2019 17:00:00 - 16.06.2019 17:00:00 (CEST)Quimper, France (7201): Température de l'air -20cm: 10.06.2019 17:00:00 - 16.06.2019 17:00:00 (CEST)Quimper, France (7201): Vitesse du vent & gusts: 10.06.2019 17:00:00 - 16.06.2019 17:00:00 (CEST)Quimper, France (7201): Direction du vent: 10.06.2019 17:00:00 - 16.06.2019 17:00:00 (CEST)Quimper, France (7201): reduced air pressure: 10.06.2019 17:00:00 - 16.06.2019 17:00:00 (CEST)Quimper, France (7201): visibility: 10.06.2019 17:00:00 - 16.06.2019 17:00:00 (CEST)Quimper, France (7201): Ensoleillement: 10.06.2019 17:00:00 - 16.06.2019 17:00:00 (CEST)Quimper, France (7201): Quantités de précipitations: 10.06.2019 17:00:00 - 16.06.2019 17:00:00 (CEST)
Date & Time tt [°C] td [°C] tt 5cm [°C] tt -20cm [°C] ff [km/h] ff [knt] fx [km/h] fx [knt] dd ppp [hPa] vv [km] sd [min] rr [mm]
16.06.2019 17:00:00 17,2 11,0 18,3 15,3 20 11 37 20 SW 1020,4 44 36 0,0
16.06.2019 16:00:00 17,3 11,6 18,0 15,3 26 14 39 21 SW 1020,5 20 25 0,0
16.06.2019 15:00:00 17,1 12,4 16,8 15,3 24 13 38 20 SW 1020,5 20 20 0,0
16.06.2019 14:00:00 15,9 13,4 15,3 15,3 18 10 34 18 SW 1020,4 28 1 0,0
16.06.2019 13:00:00 15,4 13,1 14,7 15,3 19 11 32 17 SW 1020,3 32 0 0,0
16.06.2019 12:00:00 15,0 13,4 14,6 15,3 15 8 29 16 SW 1020,3 19 0 0,0
16.06.2019 11:00:00 14,8 13,8 14,0 15,3 14 8 27 15 SSW 1020,0 14 0 0,0
16.06.2019 10:00:00 13,6 13,0 13,1 15,3 8 4 26 14 WSW 1019,8 54 0 0,6
16.06.2019 09:00:00 13,7 13,4 12,8 15,4 13 7 24 13 SW 1019,5 7 1 0,6
16.06.2019 08:00:00 13,0 12,5 12,7 15,4 16 8 32 17 WSW 1019,2 4,9 0 2,0
16.06.2019 07:00:00 13,8 13,0 13,1 15,4 16 9 32 17 SW 1018,6 13 0 0,2
16.06.2019 06:00:00 13,8 12,9 13,3 15,4 19 10 37 20 SW 1018,5 9 0 0,0
16.06.2019 05:00:00 13,8 12,7 13,7 15,5 19 10 36 19 SW 1018,2 14 0 0,0
16.06.2019 04:00:00 13,9 12,8 13,5 15,5 20 11 37 20 SW 1018,4 12 0 0,0
16.06.2019 03:00:00 13,9 13,1 13,5 15,5 21 11 34 19 SW 1018,5 8 0 0,0
16.06.2019 02:00:00 13,9 12,9 13,6 15,5 23 12 37 20 WSW 1018,6 14 0 0,0
16.06.2019 01:00:00 13,9 13,1 13,5 15,5 21 11 34 18 SW 1018,2 12 0 0,0
16.06.2019 00:00:00 13,7 12,9 13,2 15,5 15 8 34 19 SW 1018,1 14 0 0,0
15.06.2019 23:00:00 13,6 13,0 12,9 15,5 14 8 29 16 SW 1017,9 19 0 0,0
15.06.2019 22:00:00 14,0 13,2 13,5 15,5 18 10 37 20 WSW 1017,3 13 11 0,0
15.06.2019 21:00:00 14,4 13,4 14,1 15,5 25 13 51 28 WSW 1016,9 13 6 0,0
15.06.2019 20:00:00 14,3 13,7 13,7 15,4 24 13 51 28 WSW 1016,4 13 0 0,4
15.06.2019 19:00:00 14,2 13,6 13,8 15,4 27 14 49 26 WSW 1016,1 2,2 0 1,2
15.06.2019 18:00:00 14,9 13,1 14,6 15,3 22 12 46 25 WSW 1016,1 14 7 0,0
15.06.2019 17:00:00 16,0 12,5 16,8 15,3 25 13 44 24 WSW 1015,9 50 21 0,0
15.06.2019 16:00:00 15,9 12,8 14,2 15,3 30 16 49 26 WSW 1015,5 47 11 0,2
15.06.2019 15:00:00 14,6 13,1 14,5 15,3 25 14 51 28 SW 1015,1 11 1 0,0
15.06.2019 14:00:00 15,3 13,1 14,5 15,3 29 16 49 27 SW 1014,9 39 7 0,0
15.06.2019 13:00:00 14,6 13,8 13,8 15,3 24 13 44 24 SW 1014,6 19 0 0,2
15.06.2019 12:00:00 13,6 13,0 13,2 15,3 24 13 44 24 SW 1014,4 7 0 1,7
15.06.2019 11:00:00 13,7 13,1 12,7 15,4 22 12 42 23 SW 1014,2 8 0 0,6
15.06.2019 10:00:00 13,0 12,5 12,3 15,4 19 10 35 19 SW 1014,1 1,7 0 1,4
15.06.2019 09:00:00 12,6 12,0 11,8 15,5 17 9 39 21 SW 1013,8 10 0 1,6
15.06.2019 08:00:00 12,4 11,3 11,7 15,5 13 7 29 16 SW 1013,4 3,4 0 1,0
15.06.2019 07:00:00 12,7 11,1 11,7 15,6 15 8 27 14 SW 1013,3 12 0 0,2
15.06.2019 06:00:00 12,7 10,8 11,7 15,6 11 6 23 13 SW 1013,2 37 0 0,0
15.06.2019 05:00:00 12,0 10,4 11,0 15,7 10 5 16 9 SSW 1013,3 60 0 0,0
15.06.2019 04:00:00 11,5 10,2 10,8 15,7 9 5 16 9 SSW 1013,4 59 0 0,0
15.06.2019 03:00:00 11,5 10,2 10,8 15,8 8 5 15 8 SSW 1013,4 59 0 0,0
15.06.2019 02:00:00 12,2 10,3 11,6 15,8 9 5 17 9 SW 1013,8 60 0 0,0
15.06.2019 01:00:00 12,6 10,7 11,8 15,7 9 5 17 9 SW 1013,8 60 0 0,0
15.06.2019 00:00:00 12,3 11,0 11,7 15,8 8 4 11 6 S 1013,7 48 0 0,0
14.06.2019 23:00:00 13,0 11,1 12,3 15,7 6 4 16 8 SSW 1013,5 58 0 0,0
14.06.2019 22:00:00 13,7 10,9 13,6 15,7 11 6 24 13 SW 1013,1 60 16 0,0
14.06.2019 21:00:00 14,4 10,4 14,6 15,6 16 9 26 14 WSW 1013,2 60 4 0,0
14.06.2019 20:00:00 14,4 11,0 14,3 15,5 14 7 30 16 WSW 1013,3 60 0 0,0
14.06.2019 19:00:00 15,5 9,2 16,3 15,4 20 11 36 19 SW 1013,0 51 25 0,0
14.06.2019 18:00:00 16,3 8,5 17,9 15,3 23 13 32 17 WSW 1013,0 60 40 0,0
14.06.2019 17:00:00 16,4 9,8 18,6 15,2 21 11 31 17 SW 1012,8 60 19 0,0
14.06.2019 16:00:00 16,6 9,8 17,9 15,2 18 10 31 17 SW 1012,8 60 16 0,0
14.06.2019 15:00:00 16,2 9,1 17,6 15,1 20 11 34 18 SW 1013,1 60 10 0,0
14.06.2019 14:00:00 17,4 10,7 18,3 15,1 21 11 32 17 WSW 1012,9 60 46 0,0
14.06.2019 13:00:00 15,4 8,8 16,6 15,1 16 9 29 16 SW 1013,0 52 4 0,0
14.06.2019 12:00:00 15,8 9,2 17,5 15,1 16 8 33 18 WSW 1012,9 45 42 0,0
14.06.2019 11:00:00 15,2 10,0 15,6 15,1 21 11 33 18 SW 1012,9 38 35 0,0
14.06.2019 10:00:00 14,1 11,1 15,0 15,2 16 9 29 16 WSW 1012,7 20 21 0,0
14.06.2019 09:00:00 13,6 12,5 11,8 15,2 13 7 19 10 SW 1012,3 19 35 0,0
14.06.2019 08:00:00 11,7 10,9 11,2 15,3 11 6 36 19 W 1012,0 41 0 2,8
14.06.2019 07:00:00 12,3 11,2 11,1 15,3 11 6 19 10 SW 1011,7 17 0 0,2
14.06.2019 06:00:00 11,4 10,5 10,4 15,4 9 5 15 8 SSW 1011,4 60 0 0,0
14.06.2019 05:00:00 10,7 9,9 10,0 15,5 9 5 16 9 SSW 1011,4 51 0 0,0
14.06.2019 04:00:00 10,8 9,9 10,2 15,5 9 5 16 9 SSW 1011,7 51 0 0,0
14.06.2019 03:00:00 11,0 10,1 10,5 15,6 9 5 16 8 SW 1012,1 60 0 0,0
14.06.2019 02:00:00 11,5 10,2 10,9 15,6 10 5 16 8 SSW 1012,3 59 0 0,0
14.06.2019 01:00:00 11,6 10,7 10,9 15,6 8 4 12 6 SW 1012,3 60 0 0,0
14.06.2019 00:00:00 11,3 10,4 10,4 15,6 5 3 13 7 SW 1012,3 59 0 0,0
13.06.2019 23:00:00 11,4 10,1 10,8 15,6 6 3 12 7 WSW 1012,2 60 0 0,0
13.06.2019 22:00:00 12,1 10,2 11,4 15,5 8 5 23 12 WSW 1011,7 60 6 0,0
13.06.2019 21:00:00 13,5 9,7 13,7 15,4 16 9 26 14 WSW 1011,6 60 35 0,0
13.06.2019 20:00:00 14,3 10,9 14,3 15,3 14 8 29 15 WSW 1011,3 57 22 0,0
13.06.2019 19:00:00 15,0 10,0 15,6 15,2 17 9 32 17 WSW 1011,1 60 26 0,0
13.06.2019 18:00:00 15,9 10,2 16,2 15,1 19 10 32 17 WSW 1011,0 58 36 0,0
13.06.2019 17:00:00 15,5 9,6 16,5 15,0 17 9 33 18 W 1011,0 59 27 0,0
13.06.2019 16:00:00 15,3 9,2 16,6 14,9 20 11 35 19 WSW 1011,0 60 27 0,0
13.06.2019 15:00:00 15,5 9,2 16,8 14,8 22 12 36 19 WSW 1010,9 54 50 0,0
13.06.2019 14:00:00 16,0 9,2 15,3 14,7 22 12 35 19 SW 1010,5 60 40 0,0
13.06.2019 13:00:00 14,7 9,9 15,4 14,7 16 8 29 15 WSW 1010,6 60 21 0,0
13.06.2019 12:00:00 15,1 10,1 15,1 14,7 14 8 27 15 W 1010,5 20 25 0,0
13.06.2019 11:00:00 14,2 11,2 12,3 14,8 14 8 23 13 WSW 1010,3 20 16 0,0
13.06.2019 10:00:00 12,6 10,0 12,5 14,8 11 6 19 11 W 1010,1 43 21 0,0
13.06.2019 09:00:00 11,6 11,3 11,1 14,9 6 3 10 5 WSW 1010,0 15 36 0,0
13.06.2019 08:00:00 10,3 10,3 9,1 15,0 0 0 4 2 N 1009,4 6 14 0,0
13.06.2019 07:00:00 9,1 9,0 7,1 15,0 0 0 6 3 N 1009,5 3,1 10 0,0
13.06.2019 06:00:00 - - 8,1 - 0 0 6 4 N - 0,3 0 -
13.06.2019 05:00:00 9,5 9,4 8,6 15,2 4 2 6 3 W 1009,5 5 0 0,0
13.06.2019 04:00:00 9,6 9,3 9,1 15,2 0 0 0 0 N 1009,8 7 0 0,0
13.06.2019 03:00:00 9,7 9,4 9,1 15,3 0 0 11 6 N 1010,2 6 0 0,0
13.06.2019 02:00:00 9,6 9,3 7,7 15,4 8 4 10 5 WSW 1010,4 8 0 0,0
13.06.2019 01:00:00 8,8 8,3 7,5 15,4 9 5 11 6 WNW 1010,6 8 0 0,0
13.06.2019 00:00:00 10,4 9,9 9,4 15,4 4 2 8 5 WSW 1010,5 14 0 0,0
12.06.2019 23:00:00 10,9 10,1 9,6 15,4 0 0 0 0 N 1010,6 19 0 0,0
12.06.2019 22:00:00 11,8 11,2 11,3 15,4 0 0 0 0 N 1010,3 20 0 0,0
12.06.2019 21:00:00 11,6 11,0 11,1 15,4 0 0 10 5 N 1010,3 15 0 1,4
12.06.2019 20:00:00 11,5 10,9 10,9 15,3 5 3 18 10 SSE 1010,3 3,9 0 7,5
12.06.2019 19:00:00 12,5 11,2 11,4 15,2 6 3 17 9 S 1010,0 8 0 1,2
12.06.2019 18:00:00 14,0 10,0 15,2 15,1 10 6 27 15 NNE 1010,0 59 0 0,0
12.06.2019 17:00:00 15,2 9,5 16,7 14,9 12 7 24 13 WNW 1009,8 58 0 0,0
12.06.2019 16:00:00 16,1 8,8 18,2 14,8 14 8 26 14 NNW 1009,5 60 24 0,0
12.06.2019 15:00:00 15,1 9,7 16,0 14,7 12 6 22 12 N 1009,7 55 11 0,0
12.06.2019 14:00:00 13,8 10,0 13,5 14,6 15 8 27 14 N 1009,9 57 0 0,0
12.06.2019 13:00:00 14,5 9,1 16,0 14,6 10 6 23 13 NNW 1009,9 55 18 0,0
12.06.2019 12:00:00 14,1 9,9 16,3 14,6 12 7 25 14 N 1010,0 49 25 0,0
12.06.2019 11:00:00 13,9 9,9 15,4 14,6 12 7 26 14 NNW 1010,0 60 35 0,0
12.06.2019 10:00:00 13,2 9,8 13,2 14,7 16 8 27 15 N 1010,2 54 44 0,0
12.06.2019 09:00:00 12,1 9,8 12,6 14,7 14 7 23 12 N 1010,3 51 33 0,0
12.06.2019 08:00:00 11,8 9,9 - - 15 8 24 13 N 1010,2 40 48 -
12.06.2019 07:00:00 10,6 9,5 10,1 14,8 11 6 21 12 N 1010,1 20 15 0,0
12.06.2019 06:00:00 10,4 9,5 9,8 14,8 12 6 22 12 N 1010,2 24 0 0,0
12.06.2019 05:00:00 10,3 9,5 9,7 14,9 16 9 25 14 NNW 1010,2 20 0 0,0
12.06.2019 04:00:00 11,1 9,8 10,7 15,0 13 7 29 16 N 1010,5 38 0 0,0
12.06.2019 03:00:00 11,2 10,1 10,8 15,0 17 9 30 16 N 1010,9 34 0 0,0
12.06.2019 02:00:00 11,4 9,8 10,9 15,0 14 8 28 15 N 1011,2 59 0 0,0
12.06.2019 01:00:00 11,3 9,9 10,1 15,0 16 9 32 18 N 1011,5 55 0 0,0
12.06.2019 00:00:00 10,9 9,7 10,0 15,0 16 9 26 14 N 1011,5 59 0 0,0
11.06.2019 23:00:00 11,2 9,9 10,4 15,0 13 7 29 16 N 1011,2 60 0 0,0
11.06.2019 22:00:00 11,7 10,1 11,3 14,9 15 8 29 16 N 1010,7 60 25 0,0
11.06.2019 21:00:00 12,0 10,4 11,6 14,8 15 8 31 17 NNE 1010,2 60 8 0,0
11.06.2019 20:00:00 12,2 10,8 12,0 14,8 16 9 31 17 N 1009,5 60 11 0,0
11.06.2019 19:00:00 12,4 11,5 11,7 14,7 10 6 31 17 N 1008,9 53 13 1,0
11.06.2019 18:00:00 12,6 11,2 11,6 14,7 20 11 34 18 N 1009,2 8 8 0,4
11.06.2019 17:00:00 12,7 11,6 11,4 14,6 19 11 47 25 N 1009,5 52 2 1,6
11.06.2019 16:00:00 12,1 10,8 11,9 14,6 22 12 39 21 NNW 1009,9 17 0 0,2
11.06.2019 15:00:00 12,0 10,6 11,8 14,6 23 13 39 21 NNW 1010,4 8 12 0,2
11.06.2019 14:00:00 12,4 11,6 11,5 14,6 24 13 44 24 NNW 1010,8 10 6 0,0
11.06.2019 13:00:00 11,2 9,5 10,5 14,7 26 14 39 21 NNW 1011,4 12 3 0,2
11.06.2019 12:00:00 10,8 9,6 10,2 14,7 19 10 42 23 NNW 1011,8 31 0 0,4
11.06.2019 11:00:00 10,4 9,3 10,0 14,8 18 10 42 23 NNW 1012,0 19 0 0,6
11.06.2019 10:00:00 10,1 9,0 9,8 14,8 17 9 37 20 NNW 1012,5 26 0 0,2
11.06.2019 09:00:00 10,1 9,2 9,5 14,9 17 9 30 16 N 1012,7 13 0 0,0
11.06.2019 08:00:00 9,8 8,9 9,2 15,0 13 7 26 14 NNW 1012,9 60 0 0,2
11.06.2019 07:00:00 9,8 8,9 9,0 15,1 18 10 43 23 NNW 1013,1 10 0 7,3
11.06.2019 06:00:00 11,0 9,7 10,2 15,1 13 7 21 11 WNW 1013,1 13 0 0,2
11.06.2019 05:00:00 10,6 8,9 9,8 15,2 15 8 24 13 NW 1014,0 60 0 0,0
11.06.2019 04:00:00 10,6 8,5 9,0 15,2 16 9 33 18 NNW 1014,7 60 0 0,0
11.06.2019 03:00:00 9,9 8,5 9,0 15,3 13 7 31 17 NNW 1015,0 60 0 0,0
11.06.2019 02:00:00 10,2 9,0 8,6 15,3 16 8 23 12 NNW 1015,6 60 0 0,0
11.06.2019 01:00:00 10,1 8,5 8,8 15,3 11 6 26 14 NNW 1016,1 60 0 0,0
11.06.2019 00:00:00 10,3 8,7 8,9 15,3 12 6 18 10 NNW 1016,4 60 0 0,0
10.06.2019 23:00:00 9,9 8,7 8,4 15,3 9 5 16 9 N 1016,5 60 0 0,0
10.06.2019 22:00:00 10,7 8,5 9,5 15,2 12 7 19 10 N 1015,9 60 0 0,0
10.06.2019 21:00:00 11,1 9,0 9,2 15,2 6 3 24 13 WNW 1015,7 46 0 2,0
10.06.2019 20:00:00 12,4 7,3 12,8 15,0 13 7 29 15 N 1015,9 59 2 0,0
10.06.2019 19:00:00 14,1 6,7 16,0 15,0 21 12 36 19 NNW 1015,7 60 45 0,0
10.06.2019 18:00:00 15,4 6,7 15,9 14,8 20 11 31 17 NW 1015,7 60 36 0,0
10.06.2019 17:00:00 15,4 7,2 15,7 14,8 18 10 36 19 NW 1015,7 49 21 0,0

tt = Température de l'air
td = dewpoint
tt 5cm = Température de l'air 5cm
tt -20cm = Température de l'air -20cm
ff = Vitesse du vent
fx = gusts
dd = Direction du vent
ppp = reduced air pressure
vv = visibility
sd = Ensoleillement
rr = Quantités de précipitations

stations d'obs. à proximité